Location: �chenoz-la-M�line
(47.6009°N, 6.1354°E)
Time: 13:40:51
(UTC+00:00)

Cosmos 1980 - Pass Details

Date: 11 December 2021
Orbit: 837 x 849 km, 71.0° (Epoch: 20 January)

Event Time Altitude Azimuth Distance (km) Brightness Sun altitude
Rises 18:53:46 0° 335° (NNW) 3,417 7.1 -30.9°
Reaches altitude 10° 18:56:21 10° 343° (NNW) 2,480 6.3 -31.3°
Enters shadow 18:57:50 18° 350° (N) 1,980 5.7 -31.6°
